Change the Weather History Date:

Thursday, August 1, 2013

  Actual Average Record
Temperature  
Mean Temperature 68 °F -  
Max Temperature 73 °F 80 °F 95 °F (1999)
Min Temperature 64 °F 63 °F 57 °F (1978)
Cooling Degree Days 4    
Growing Degree Days 18 (Base 50)    
Moisture  
Dew Point 64 °F    
Average Humidity 89    
Maximum Humidity 100    
Minimum Humidity 68    
Precipitation  
Precipitation 0.61 in - - ()
Sea Level Pressure  
Sea Level Pressure 29.92 in    
Wind  
Wind Speed 4 mph (SE)    
Max Wind Speed 12 mph    
Max Gust Speed 21 mph    
Visibility 6 miles    
Events Rain    
Averages and records for this station are not official NWS values.
T = Trace of Precipitation, MM = Missing Value Source: NWS Daily Summary

Daily Weather History Graph

Daily Weather History Graph

Search for Another Location

Airport or City:

Trip Planner

Search our weather history database for the weather conditions in past years. The results will help you decide how hot, cold, wet, or windy it might be!

Date:

Astronomy

Aug. 01, 2013 Rise Set
Actual Time 5:50 AM EDT 8:10 PM EDT
Civil Twilight 5:19 AM EDT 8:41 PM EDT
Nautical Twilight 4:41 AM EDT 9:19 PM EDT
Astronomical Twilight 3:59 AM EDT 10:01 PM EDT
Moon 1:24 AM EDT (8/1) 4:17 PM EDT (8/1)
Length of Visible Light 15h 21m
Length of Day
14h 19m
Waning Crescent, 23% of the Moon is Illuminated
Aug 1
Waning Crescent
Aug 6
New
Aug 14
First Quarter
Aug 20
Full
Aug 28
Last Quarter

Hourly Weather History & Observations

Time (EDT) Temp. Dew Point Humidity Pressure Visibility Wind Dir Wind Speed Gust Speed Precip Events Conditions
12:56 AM 66.0 °F 62.1 °F 87% 30.03 in 10.0 mi Calm Calm - N/A   Clear
1:56 AM 64.9 °F 62.1 °F 90% 30.01 in 10.0 mi Calm Calm - N/A   Clear
2:56 AM 66.0 °F 63.0 °F 90% 30.00 in 10.0 mi Calm Calm - N/A   Scattered Clouds
3:56 AM 66.0 °F 63.0 °F 90% 29.98 in 9.0 mi Calm Calm - N/A   Clear
4:56 AM 66.0 °F 63.0 °F 90% 29.97 in 8.0 mi Calm Calm - N/A   Partly Cloudy
5:56 AM 66.9 °F 64.0 °F 90% 29.97 in 8.0 mi Calm Calm - N/A   Overcast
6:56 AM 68.0 °F 64.0 °F 87% 29.97 in 7.0 mi Calm Calm - N/A   Overcast
7:56 AM 70.0 °F 64.9 °F 84% 29.97 in 9.0 mi ESE 4.6 mph - N/A   Scattered Clouds
8:56 AM 73.9 °F 64.0 °F 71% 29.96 in 10.0 mi SSE 10.4 mph - N/A   Mostly Cloudy
9:56 AM 73.9 °F 63.0 °F 68% 29.95 in 10.0 mi South 8.1 mph - N/A   Overcast
10:56 AM 73.0 °F 64.0 °F 73% 29.95 in 10.0 mi SSE 9.2 mph - 0.00 in   Overcast
11:51 AM 69.8 °F 64.4 °F 83% 29.95 in 1.5 mi South 6.9 mph 20.7 mph 0.01 in Rain Light Rain
11:56 AM 70.0 °F 64.0 °F 81% 29.95 in 2.0 mi South 11.5 mph 16.1 mph 0.02 in Rain Light Rain
12:56 PM 66.9 °F 63.0 °F 87% 29.94 in 3.0 mi South 4.6 mph - 0.07 in Rain Light Rain
1:33 PM 66.2 °F 64.4 °F 94% 29.94 in 1.5 mi South 3.5 mph - 0.03 in Rain Light Rain
1:56 PM 66.9 °F 64.0 °F 90% 29.94 in 1.5 mi South 5.8 mph - 0.11 in Rain Light Rain
2:56 PM 66.9 °F 64.0 °F 90% 29.93 in 4.0 mi SSE 8.1 mph - 0.01 in   Overcast
3:56 PM 66.9 °F 64.9 °F 93% 29.91 in 5.0 mi SE 8.1 mph - 0.00 in   Overcast
4:56 PM 66.9 °F 64.0 °F 90% 29.89 in 8.0 mi SE 4.6 mph - 0.01 in Rain Light Rain
5:31 PM 66.2 °F 64.4 °F 94% 29.89 in 9.0 mi ESE 8.1 mph - 0.00 in   Overcast
5:56 PM 66.9 °F 64.0 °F 90% 29.87 in 8.0 mi East 6.9 mph - 0.00 in Rain Light Rain
6:11 PM 66.2 °F 64.4 °F 94% 29.88 in 8.0 mi ESE 4.6 mph - 0.00 in Rain Light Rain
6:56 PM 66.9 °F 64.0 °F 90% 29.88 in 7.0 mi ESE 6.9 mph - 0.02 in Rain Light Rain
7:17 PM 66.2 °F 64.4 °F 94% 29.89 in 2.5 mi SE 5.8 mph - 0.01 in Rain Light Rain
7:56 PM 66.9 °F 64.9 °F 93% 29.87 in 2.0 mi SE 5.8 mph - 0.05 in Rain Light Rain
8:19 PM 66.2 °F 64.4 °F 94% 29.88 in 1.0 mi SE 8.1 mph - 0.01 in Rain Light Rain
8:48 PM 66.2 °F 66.2 °F 100% 29.87 in 1.0 mi ESE 5.8 mph - 0.14 in Rain Rain
8:56 PM 66.9 °F 66.0 °F 97% 29.86 in 1.0 mi ESE 5.8 mph - 0.15 in Rain Light Rain
9:56 PM 68.0 °F 66.9 °F 96% 29.85 in 1.5 mi SSE 6.9 mph - 0.11 in   Mist
10:03 PM 68.0 °F 66.2 °F 94% 29.86 in 2.5 mi SSE 5.8 mph - N/A   Mist
10:56 PM 69.1 °F 66.9 °F 93% 29.83 in 2.5 mi South 3.5 mph - 0.00 in Rain Light Rain
11:56 PM 69.1 °F 66.9 °F 93% 29.83 in 1.8 mi Variable 4.6 mph - 0.06 in Rain Rain